Regional Weather Roundup
Issued by NWS

Home | Current Version | Previous Version | Text Only | Print | Product List | Glossary On
Versions: 1 2 3 4 5 6 7 8 9 10 11 12 13 14 15 16 17 18 19 20 21 22 23 24 25 26 27 28 29 30 31 32 33 34 35 36 37 38 39 40 41 42 43 44 45 46 47 48 49 50
000
ASUS42 KKEY 292210
RWRKEY

FLORIDA REGIONAL WEATHER ROUNDUP FOR THE FLORIDA KEYS
NATIONAL WEATHER SERVICE KEY WEST FLORIDA
500 PM EST THU JAN 29 2015

...SOUTH FLORIDA AND THE KEYS...

CITY           SKY/WX    TMP DP  RH WIND       PRES   REMARKS
FORT MYERS     SUNNY     72  47  40 E8        30.19F
SW REGIONAL AP SUNNY     72  47  40 E6        30.20S
NAPLES         SUNNY     69  52  54 W9        30.20R
MIAMI          MOSUNNY   70  51  51 E10       30.21R
WEST KENDALL   MOSUNNY   70  49  47 E10       30.21R
HOMESTEAD      SUNNY     69  52  54 NE12      30.20R
MARATHON       MOSUNNY   68  57  68 NE12      30.17S
BOCA CHICA NAS MOSUNNY   70  53  54 NE13      30.17S
KEY WEST INTL  SUNNY     71  54  54 NE9G17    30.18R

...INTERNATIONAL WEATHER...

CITY           SKY/WX    TMP DP  RH WIND       PRES   REMARKS
NASSAU BAHAMAS NOT AVBL
CANCUN MEXICO  MOSUNNY   73  57  56 E7        30.12S
COZUMEL MEXICO MOSUNNY   72  57  60 E14       30.11F

ADJACENT COASTAL WATERS...

STATION/POSITION TIME  SKY/WX   TEMP    WIND        PRES    WAVE
                                AIR SEA DIR/SP/G            HT/PER
                 (UTC)          (F)     (DEG/KT/KT) (MB)    (FT/S)
PULASKI SHOAL LI NOT AVBL
SAND KEY         NOT AVBL
SOMBRERO KEY     NOT AVBL
LONG KEY         NOT AVBL
MOLASSES REEF    NOT AVBL
FOWEY ROCKS      NOT AVBL
Buoy 42080       NOT AVBL

$$


USA.gov is the U.S. government's official web portal to all federal, state and local government web resources and services.